Location: Tusaire Observatory
(45.4516°N, 93.5392°W)
Time: 09:54:27
(UTC-05:00)

Envisat - Visible Passes

Search period start: 20 September 2018 00:00
Search period end: 30 September 2018 00:00
Orbit: 764 x 766 km, 98.2° (Epoch: 20 September)

Date Brightness Start Highest point End Pass type
(mag) Time Alt. Az. Time Alt. Az. Time Alt. Az.
20 Sep 3.0 20:09:53 10° SSE 20:14:58 89° E 20:20:05 10° NNW visible
20 Sep 5.9 21:52:51 10° WSW 21:54:42 12° W 21:56:32 10° WNW visible
21 Sep 3.4 19:33:34 10° SE 19:38:20 43° ENE 19:43:08 10° N visible
21 Sep 5.1 21:13:21 10° SSW 21:17:31 26° W 21:21:44 10° NW visible
22 Sep 3.8 20:35:36 10° S 20:40:34 54° W 20:45:34 10° NNW visible
23 Sep 3.0 19:58:45 10° SSE 20:03:48 73° ENE 20:08:53 10° N visible
23 Sep 5.8 21:40:29 10° WSW 21:43:22 15° W 21:46:15 10° NW visible
24 Sep 4.7 21:01:45 10° SSW 21:06:15 32° W 21:10:48 10° NNW visible
25 Sep 3.3 20:24:19 10° S 20:29:21 68° WSW 20:34:27 10° NNW visible
26 Sep 3.1 19:47:41 10° SSE 19:52:39 58° ENE 19:57:39 10° N visible
26 Sep 5.5 21:28:30 10° SW 21:32:04 19° W 21:35:38 10° NW visible
27 Sep 4.3 20:50:17 10° SSW 20:55:01 39° W 20:59:47 10° NNW visible
28 Sep 3.0 20:13:05 10° SSE 20:18:10 84° WSW 20:23:17 10° NNW visible
28 Sep 6.0 21:56:52 10° W 21:57:58 11° W 21:59:04 10° WNW visible
29 Sep 3.3 19:36:41 10° SE 19:41:31 47° ENE 19:46:23 10° N visible
29 Sep 5.2 21:16:44 10° SW 21:20:46 23° W 21:24:49 10° NW visible
